Regional Weather Roundup
Issued by NWS

Home | Current Version | Previous Version | Text Only | Print | Product List | Glossary On
Versions: 1 2 3 4 5 6 7 8 9 10 11 12 13 14 15 16 17 18 19 20 21 22 23 24 25 26 27 28 29 30 31 32 33 34 35 36 37 38 39 40 41 42 43 44 45 46 47 48 49 50
000
ASUS43 KTOP 252108
RWRKS

WEATHER ROUNDUP FOR KANSAS
NATIONAL WEATHER SERVICE GOODLAND KS
400 PM CDT MON SEP 25 2017

NOTE:  "FAIR" INDICATES FEW OR NO CLOUDS BELOW 12,000 FEET WITH NO
SIGNIFICANT WEATHER AND/OR OBSTRUCTIONS TO VISIBILITY.

KSZ001>006-013>018-027>032-041>047-252200-
NORTHWEST KANSAS

CITY           SKY/WX    TMP DP  RH WIND       PRES   REMARKS
GOODLAND       CLOUDY    49  48  97 N14       30.03S FOG
HAYS           CLOUDY    58  55  90 N13       29.95S
HILL CITY      CLOUDY    55  54  96 N10       29.99S
RUSSELL        CLOUDY    57  56  96 N13       29.91F FOG
$$

KSZ061>065-074>080-084>089-252200-
SOUTHWEST KANSAS

CITY           SKY/WX    TMP DP  RH WIND       PRES   REMARKS
DODGE CITY     CLOUDY    58  57  97 N13       29.94S
ELKHART          N/A     54  57 100 NE9         N/A
GARDEN CITY    HVY RAIN  54  53  97 NW16      29.99R VSB 1
GREAT BEND     LGT RAIN  59  58  96 NW9       29.93S FOG
LIBERAL        RAIN      56  55  97 NW17      29.99R
PRATT          RAIN      63  62  95 CALM      29.91S
$$

KSZ066>073-081>083-090>101-252200-
SOUTHEAST KANSAS

CITY           SKY/WX    TMP DP  RH WIND       PRES   REMARKS
CHANUTE        MOSUNNY   85  66  53 S12       29.87F
COFFEYVILLE    CLOUDY    88  65  46 S10       29.85F
HUTCHINSON     LGT RAIN  67  64  90 NE6       29.89F
MEDICINE LODGE   N/A     63  62  97 NE7       29.88S
NEWTON         LGT RAIN  66  65  96 NW13      29.91F
PARSONS        MOSUNNY   85  64  49 S8        29.87F
WICHITA INTL   LGT RAIN  67  66  97 NW17      29.89F VSB 1
WICHITA JABRA  TSTM      67  67 100 NW10      29.88R FOG
WICHITA MCCONL LGT RAIN  68  64  88 NW6       29.88F
WINFIELD       LGT RAIN  73  67  81 W18       29.87R
$$

KSZ007>012-019>026-033>040-048>060-102>105-252200-
NORTHEAST KANSAS

CITY           SKY/WX    TMP DP  RH WIND       PRES   REMARKS
CONCORDIA      LGT RAIN  64  64 100 SE10      29.88F
EMPORIA        CLOUDY    85  63  47 S17       29.84F
LAWRENCE       PTSUNNY   86  65  49 S13       29.85F
MANHATTAN      LGT RAIN  69  65  86 NE8       29.88F
MARYSVILLE     CLOUDY    66  64  94 N5        29.90F
OLATHE IND     MOSUNNY   83  65  54 S10       29.88F
OLATHE EXE     SUNNY     82  66  58 S13       29.88F
SALINA         LGT RAIN  67  64  90 E12       29.89F
TOPEKA BILLARD CLOUDY    77  67  71 NW16G23   29.85S
TOPEKA FORBES  CLOUDY    87  65  47 S12       29.85F
$$




USA.gov is the U.S. government's official web portal to all federal, state and local government web resources and services.